Location: Belvedere Heights
(33.9836°N, 117.3109°W)
Time: 09:41:07
(UTC+00:00)

POLYITAN 1 - Visible Passes

Search period start: 26 May 2024 00:00
Search period end: 05 June 2024 00:00
Orbit: 551 x 569 km, 98.1° (Epoch: 25 May)

Date Brightness Start Highest point End Pass type
(mag) Time Alt. Az. Time Alt. Az. Time Alt. Az.
26 May ? 11:08:08 10° NNE 11:12:08 79° ESE 11:14:43 21° S visible
27 May ? 11:07:02 10° NNE 11:11:01 76° E 11:13:38 21° S visible
28 May ? 11:05:55 10° NNE 11:09:54 73° ESE 11:12:32 20° S visible
29 May ? 11:04:46 10° NNE 11:08:45 70° ESE 11:11:24 20° S visible
30 May ? 11:03:36 10° NNE 11:07:34 66° E 11:10:15 20° S visible
31 May ? 11:02:25 10° NNE 11:06:22 63° E 11:09:05 19° S visible
01 Jun ? 11:01:13 10° NNE 11:05:09 60° E 11:07:52 19° S visible
02 Jun ? 11:00:00 10° NNE 11:03:55 57° E 11:06:39 18° S visible
03 Jun ? 10:58:45 10° NNE 11:02:39 55° E 11:05:24 18° S visible
04 Jun ? 10:57:29 10° NNE 11:01:22 52° E 11:04:08 18° S visible
